Regional Weather Roundup
Issued by NWS

Home | Current Version | Previous Version | Graphics & Text | Print | Product List | Glossary On
Versions: 1 2 3 4 5 6 7 8 9 10 11 12 13 14 15 16 17 18 19 20 21 22 23 24 25 26 27 28 29 30 31 32 33 34 35 36 37 38 39 40 41 42 43 44 45 46 47 48 49 50
000
ASUS43 KIND 290709
RWRIN

WEATHER ROUNDUP FOR INDIANA
NATIONAL WEATHER SERVICE INDIANAPOLIS IN
200 AM EST MON DEC 29 2014

NOTE: "FAIR" INDICATES FEW OR NO CLOUDS BELOW 12,000 FEET WITH NO
SIGNIFICANT WEATHER AND/OR OBSTRUCTIONS TO VISIBILITY.

* - STATION DOES NOT REPORT WEATHER SUCH AS PRECIPITATION OR FOG.

+ - STATION NOT QUALITY CONTROLLED BY THE NATIONAL WEATHER SERVICE.
    USE DATA WITH CAUTION...ESPECIALLY DEWPOINT AND RELATIVE
    HUMIDITY OBSERVATIONS.

INZ001>003-010>013-019-020-290800-
NORTHWEST INDIANA

CITY           SKY/WX    TMP DP  RH WIND       PRES   REMARKS
GARY /AIRPORT/ PTCLDY    22  17  79 CALM      30.26S
KNOX *+        PTCLDY    21  17  84 CALM      30.23S
LA PORTE +     PTCLDY    28  21  76 CALM      30.24S
MICHIGAN CITY+ CLOUDY    27  18  69 CALM      30.24S
MONTICELLO +   PTCLDY    22  21  96 CALM      30.24S FOG
RENSSELAER +   CLEAR     25  25 100 CALM      30.25S
VALPARAISO     PTCLDY    24  16  71 NW5       30.24S WCI  18

$$

LMZ046-743>745-290800-
SOUTHERN LAKE MICHIGAN

STATION/POSITION TIME  TEMP WIND        PRES
                       AIR  DIR/SP/G
                 (UTC) (F)  (DEG/KT/KT) (MB)
MICHIGAN CITY    0700   34  320/ 10/ 12   N/A

$$

INZ004-005-014>016-021>024-290800-
NORTH CENTRAL INDIANA

CITY           SKY/WX    TMP DP  RH WIND       PRES   REMARKS
GOSHEN         CLEAR     23  20  88 CALM      30.22F FOG
LOGANSPORT +   PTCLDY    23  21  93 CALM      30.25S FOG
PERU/GRISSOM   MOCLDY    24  24 100 NW3       30.23S
ROCHESTER +    CLEAR     27  27 100 CALM      30.24S FOG
SOUTH BEND     CLEAR     22  18  85 CALM      30.24R
WARSAW +       CLEAR     21  21 100 CALM      30.23S FOG

$$

INZ006>009-017-018-025>027-290800-
NORTHEAST INDIANA

CITY           SKY/WX    TMP DP  RH WIND       PRES   REMARKS
ANGOLA *+      CLEAR     21  19  93 CALM      30.20F
AUBURN +       CLEAR     25  23  93 CALM      30.23S FOG
FORT WAYNE     PTCLDY    24  21  88 CALM      30.24S
HUNTINGTON +   CLEAR     22  18  86 CALM      30.22S FOG

$$

INZ028-029-035-036-043>045-051>053-290800-
WEST CENTRAL INDIANA

CITY           SKY/WX    TMP DP  RH WIND       PRES   REMARKS
GREENCASTLE +  CLEAR     23  19  86 N3        30.23R
LAFAYETTE      MOCLDY    20  19  96 CALM      30.25S FOG
TERRE HAUTE    CLEAR     22  19  89 CALM      30.24S

$$

INZ030>032-037>040-046>048-054>057-064-065-290800-
CENTRAL INDIANA

CITY           SKY/WX    TMP DP  RH WIND       PRES   REMARKS
CP ATTERBURY + CLEAR     27  25  93 MISG      30.23S
FRANKFORT +    MOCLDY   N/A N/A N/A CALM      30.25S HAZE
INDIANAPOLIS   CLEAR     21  19  92 N5        30.22S WCI  15
-EAGLE CREEK   CLEAR     22  20  92 N3        30.22S
KOKOMO *+      PTCLDY    25  21  86 W3        30.24R
MARION +       CLEAR     25  24  96 CALM      30.24S FOG
MT COMFORT *+  CLEAR     23 N/A N/A CALM      30.23R
SHELBYVILLE    CLEAR     27  23  85 N3        30.22R
ZIONSVILLE +   PTCLDY    22  19  89 CALM      30.23S

$$

INZ033-034-041-042-049-050-058-059-290800-
EAST CENTRAL INDIANA

CITY           SKY/WX    TMP DP  RH WIND       PRES   REMARKS
MUNCIE         CLEAR     24  21  88 CALM      30.22R FOG

$$

INZ060-061-067>069-081>083-085>088-290800-
SOUTHWEST INDIANA

CITY           SKY/WX    TMP DP  RH WIND       PRES   REMARKS
EVANSVILLE     CLOUDY    33  26  75 N6        30.23F WCI  28
HUNTINGBURG *+ CLOUDY    32  27  80 NE7       30.22F WCI  26
WASHINGTON +   CLEAR     26  23  86 N3        30.23S

$$

INZ062-063-066-070>080-084-089>092-290800-
SOUTH CENTRAL AND SOUTHEAST INDIANA

CITY           SKY/WX    TMP DP  RH WIND       PRES   REMARKS
BLOOMINGTON    CLEAR     23  21  92 CALM      30.21S FOG

$$



USA.gov is the U.S. government's official web portal to all federal, state and local government web resources and services.